This is the latest recevied weather packets stored in our database for station/object SP9KB-13. If no packets are shown the sender has not sent any weather packets the latest 10 day(s).
| Time | Temp. | Humidity | Pressure | Rain* | Wind** | Luminosity | Snow |
|---|---|---|---|---|---|---|---|
| 1778011345 | 11.67° C | 67% | 991.5 hPa | 0 mm | - | - | - |
| 1778011045 | 11.67° C | 67% | 991.7 hPa | 0 mm | - | - | - |
| 1778010744 | 11.67° C | 64% | 991.5 hPa | 0 mm | - | - | - |
| 1778010444 | 12.22° C | 65% | 991.6 hPa | 0 mm | - | - | - |
| 1778010143 | 11.67° C | 65% | 991.5 hPa | 0 mm | - | - | - |
| 1778009843 | 12.22° C | 63% | 991.6 hPa | 0 mm | - | - | - |
| 1778009542 | 12.22° C | 63% | 991.5 hPa | 0 mm | - | - | - |
| 1778009242 | 12.78° C | 64% | 991.6 hPa | 0 mm | - | - | - |
| 1778008941 | 12.78° C | 60% | 991.7 hPa | 0 mm | - | - | - |
| 1778008641 | 12.78° C | 63% | 991.4 hPa | 0 mm | - | - | - |
| 1778008341 | 13.33° C | 60% | 991.4 hPa | 0 mm | - | - | - |
| 1778008040 | 13.33° C | 60% | 991.5 hPa | 0 mm | - | - | - |
| 1778007739 | 13.33° C | 59% | 991.5 hPa | 0 mm | - | - | - |
| 1778007439 | 13.89° C | 58% | 991.4 hPa | 0 mm | - | - | - |
| 1778007138 | 14.44° C | 58% | 991.4 hPa | 0 mm | - | - | - |
| 1778006838 | 14.44° C | 54% | 991.5 hPa | 0 mm | - | - | - |
| 1778006537 | 15.56° C | 53% | 991.1 hPa | 0 mm | - | - | - |
| 1778006237 | 16.11° C | 49% | 991.4 hPa | 0 mm | - | - | - |
| 1778005936 | 16.11° C | 49% | 991.3 hPa | 0 mm | - | - | - |
| 1778005636 | 16.67° C | 46% | 991.3 hPa | 0 mm | - | - | - |
| 1778005335 | 16.67° C | 44% | 991.3 hPa | 0 mm | - | - | - |
| 1778005034 | 16.67° C | 43% | 991.1 hPa | 0 mm | - | - | - |
| 1778004734 | 17.22° C | 46% | 991.2 hPa | 0 mm | - | - | - |
| 1778004433 | 18.33° C | 39% | 991 hPa | 0 mm | - | - | - |
| 1778004133 | 18.89° C | 39% | 991.1 hPa | 0 mm | - | - | - |
* Rain latest hour (hover to see other rain measurements)
** Current wind speed in m/s (hover to see current wind gust speed)